Vertical_Velocity
1 0 1 -0 -1 1 -0 1 0 -2 24 -4 -5 -2 -4 8 -2 3 -5 -8 1 -1 2 -5 -2 3 -3 8 -2 -2 2 -5 3 0 -3 -9 -1 -2 2 -1 -2 4 0
2 0 -1 0 0 -1 1 -0 2 -3 5 -4 -4 5 -15 1 8 1 0 2 3 2 3 -2 3 -3 1 -4 8 -3 -5 -6 18 -2 4 2 0 -1 1 2 0 5 1
1 2 2 -0 1 1 -0 -2 0 3 4 5 -5 -3 0 -0 6 -1 -3 -1 -1 -0 4 -1 -2 -0 1 3 -4 9 -5 -3 5 -7 1 -7 -2 -4 -1 0 3 1 3
3 2 -1 2 -0 0 2 1 0 -0 0 1 -10 -4 17 -9 4 -0 -0 -1 0 -1 2 -0 -1 -0 -1 2 -6 6 -5 10 -11 -4 12 8 -8 2 -4 0 3 4 1
3 2 3 1 -0 0 -1 2 2 -1 -1 2 16 -3 -0 12 -1 3 -2 -0 -0 2 -1 -1 -1 -1 -1 -1 1 3 -5 5 0 -4 -0 5 3 -4 -6 -2 -1 0 5
3 1 4 1 1 0 -0 -1 0 -1 1 -3 -1 -9 4 4 -0 1 0 1 -0 -2 -3 -2 0 -1 -0 4 2 -3 -1 -3 5 -6 -5 6 4 6 -7 -4 -2 1 -3
0 0 1 2 1 1 0 -0 -1 0 1 1 2 2 1 3 -1 -0 -1 -1 0 -1 -0 0 -0 -1 -1 -1 -6 4 -2 1 1 1 -3 -3 2 3 11 -3 -3 -1 -2
-1 2 4 1 2 1 1 0 0 0 0 1 2 1 1 -1 -2 -0 -0 -1 0 0 0 -0 -1 -1 2 2 0 -0 2 -1 -1 -0 -0 0 -1 3 -1 10 1 2 -0
1 -0 3 4 2 2 2 2 1 1 1 0 1 0 0 1 2 2 -4 -1 0 -0 -0 -0 -2 -1 -2 0 -2 1 -1 -0 1 -4 0 -0 2 2 1 -3 -5 1 2
3 4 1 -1 1 1 1 1 1 1 1 1 1 1 1 0 -0 -1 -0 -1 -0 0 0 2 1 -0 -0 -1 -3 -3 0 -1 0 2 -1 -5 2 2 -1 -0 -2 -6 1
2 2 3 3 2 1 1 0 1 1 1 -0 1 -0 0 0 -0 0 1 0 -0 -1 -0 -0 -1 -0 -0 -2 0 2 1 -1 0 -2 -2 1 1 -3 4 -3 3 2 2
0 0 1 1 0 1 0 -0 1 1 1 1 0 1 0 0 -0 0 1 1 1 0 0 -0 2 2 1 -0 2 1 3 2 1 2 -1 -1 -0 -2 2 -1 0 -5 1
1 1 1 1 1 1 1 1 -1 -1 2 1 1 1 1 1 1 0 1 1 0 0 1 0 -2 -3 -1 0 -0 -2 -0 -1 -1 1 -2 -2 0 0 -0 1 3 3 -1
0 0 0 0 -0 -1 -1 -2 -0 1 -1 -0 1 1 2 1 1 1 1 1 1 1 0 -1 -1 2 1 -1 -2 0 1 -1 -0 -1 1 -0 -1 -0 -1 1 1 -0 1
0 -0 -3 -4 -2 -1 0 -0 -2 -5 -5 -1 -1 0 1 1 1 -0 -0 0 0 0 0 1 0 1 1 -2 1 1 0 1 -1 0 1 1 -2 2 -2 -1 0 -2 -2
-0 -1 -2 -1 -1 -1 -1 -1 -1 0 0 0 -2 -1 -1 -0 1 1 -0 -0 -1 -0 0 -0 1 1 0 -0 1 0 1 -1 -1 -2 -3 -1 -3 -1 -0 -0 1 0 -1
-1 -1 -1 1 0 -1 -0 -0 0 -0 0 1 0 -0 -0 -0 -1 -1 -0 0 0 -1 -1 -1 -0 -0 -1 0 -0 1 1 -0 1 1 -1 -1 -3 -1 -2 -1 -3 -3 -1
1 1 1 1 0 -1 -1 -1 -2 -2 -2 -1 -0 -0 -1 -1 -0 -0 -1 -1 -1 -1 -1 -1 -2 -2 -1 1 0 -1 -0 0 0 0 0 1 2 0 1 0 -2 -1 -2
1 2 2 1 -1 0 -0 -0 -2 -2 -2 -2 -2 -2 -1 -0 -1 -1 -2 -1 -1 -2 -2 -2 -2 -1 -2 -2 -1 0 1 0 -1 -1 -2 -2 -1 -1 -1 0 1 -0 -1
-0 2 1 -0 -0 -0 -0 1 1 -0 -2 -3 -3 -2 -2 -2 -1 -1 0 -0 -1 -1 -1 -2 -2 -2 -2 1 0 -2 -2 -3 0 3 1 -0 0 -0 -0 -1 -0 -2 1
1 4 2 0 0 -1 -2 -2 -1 -1 0 0 -1 -2 -3 -3 -1 -2 -2 -1 -0 -1 -1 -1 -0 -1 -0 1 -1 0 -1 -2 -1 -2 -2 -1 1 2 3 2 1 1 1
0 3 -0 1 2 -0 -1 -2 -2 0 -1 0 1 1 0 -1 -2 -3 -1 -1 -1 -1 -1 -1 -2 -2 -1 -1 0 1 -0 -1 -3 -3 -2 -0 1 0 -0 1 -1 1 -3
-1 -4 4 0 1 1 -0 -2 0 -2 -1 -1 -1 -0 0 0 1 -1 -1 -1 -1 -0 -0 -0 -0 0 -0 -1 -0 0 1 1 0 -1 -1 -2 -1 -0 -1 0 0 2 -1
-2 -3 0 4 -3 3 1 -2 1 -0 -1 -1 -1 -1 -1 0 0 -0 0 -0 -0 -0 0 -0 0 0 0 1 0 -0 -0 0 -0 1 1 -1 -1 -1 -2 1 1 2 -2
-1 2 2 3 -2 4 4 -0 1 0 -1 -0 -0 -1 -1 -0 -0 0 -1 -0 -1 -0 -0 -1 0 -0 -1 0 1 1 -1 -3 -2 -1 -1 -0 -1 -0 -0 -2 -0 -0 1
-2 -1 1 1 0 4 1 3 1 1 0 -0 -0 -1 -1 -0 -0 0 0 -0 -1 -1 -1 -1 1 -1 -1 1 2 4 2 2 3 5 4 -3 -1 -1 1 2 -0 -2 2
Height
1478 1479 1481 1483 1485 1486 1488 1489 1490 1492 1491 1498 1495 1503 1502 1502 1504 1507 1510 1513 1516 1519 1519 1522 1524 1526 1526 1528 1529 1532 1533 1534 1536 1538 1541 1542 1543 1544 1545 1549 1551 1551 1553
1480 1481 1482 1484 1485 1486 1487 1489 1490 1491 1491 1493 1493 1499 1498 1503 1502 1505 1508 1509 1512 1514 1516 1519 1520 1522 1524 1525 1526 1527 1530 1533 1534 1535 1538 1538 1540 1540 1541 1543 1546 1545 1548
1482 1483 1484 1485 1485 1486 1487 1489 1490 1491 1492 1493 1495 1499 1503 1503 1500 1502 1505 1506 1509 1512 1513 1516 1520 1520 1522 1523 1524 1524 1526 1528 1529 1533 1537 1535 1536 1538 1538 1539 1541 1541 1542
1482 1484 1483 1485 1484 1486 1487 1488 1489 1490 1492 1493 1495 1498 1500 1500 1499 1499 1502 1504 1506 1507 1509 1512 1515 1517 1520 1521 1523 1523 1524 1526 1527 1532 1532 1530 1531 1535 1536 1536 1536 1538 1537
1482 1483 1484 1483 1484 1485 1486 1488 1489 1489 1492 1492 1493 1496 1495 1497 1498 1497 1500 1502 1503 1505 1508 1509 1512 1515 1516 1517 1520 1521 1522 1524 1524 1528 1530 1528 1527 1528 1532 1534 1533 1535 1535
1482 1483 1483 1483 1484 1485 1486 1487 1488 1489 1490 1491 1492 1496 1497 1493 1497 1496 1498 1501 1502 1504 1506 1508 1510 1512 1513 1514 1517 1519 1521 1522 1522 1525 1528 1528 1526 1523 1526 1531 1531 1533 1532
1481 1482 1483 1484 1484 1485 1487 1488 1489 1490 1491 1492 1493 1494 1494 1494 1496 1497 1498 1501 1502 1504 1506 1507 1509 1509 1510 1512 1515 1517 1517 1520 1521 1523 1524 1527 1525 1525 1523 1526 1528 1529 1531
1480 1482 1483 1484 1484 1486 1487 1488 1489 1490 1491 1492 1492 1493 1493 1495 1496 1499 1498 1501 1502 1504 1505 1506 1507 1509 1510 1511 1513 1515 1516 1518 1518 1521 1521 1524 1524 1524 1524 1523 1526 1527 1528
1481 1482 1483 1483 1484 1485 1487 1488 1489 1490 1491 1492 1493 1493 1494 1496 1497 1497 1499 1501 1502 1504 1505 1506 1506 1509 1509 1512 1513 1515 1515 1515 1516 1517 1518 1520 1522 1522 1523 1524 1524 1527 1530
1482 1482 1482 1483 1485 1486 1487 1488 1490 1490 1491 1492 1493 1494 1495 1496 1497 1498 1500 1501 1503 1504 1505 1505 1507 1508 1509 1511 1512 1513 1514 1515 1514 1514 1516 1518 1519 1521 1520 1521 1524 1526 1529
1483 1484 1484 1485 1486 1487 1488 1489 1490 1491 1491 1492 1493 1494 1495 1496 1498 1499 1500 1501 1502 1503 1504 1505 1506 1508 1508 1510 1511 1510 1511 1512 1512 1513 1514 1518 1518 1521 1519 1519 1522 1523 1523
1485 1485 1485 1486 1486 1487 1487 1488 1489 1490 1491 1492 1494 1494 1495 1496 1498 1499 1500 1501 1502 1503 1504 1505 1506 1507 1508 1509 1509 1509 1511 1511 1512 1512 1513 1517 1518 1519 1517 1517 1520 1521 1521
1488 1488 1488 1488 1488 1488 1489 1489 1490 1491 1492 1492 1494 1495 1495 1496 1497 1498 1500 1501 1501 1502 1503 1504 1506 1508 1509 1507 1508 1509 1510 1511 1511 1512 1513 1515 1516 1517 1517 1517 1517 1519 1518
1490 1490 1491 1491 1491 1490 1490 1490 1491 1491 1492 1493 1494 1495 1495 1496 1497 1498 1499 1500 1501 1502 1502 1504 1505 1505 1505 1507 1509 1510 1510 1510 1511 1511 1512 1513 1514 1514 1516 1515 1516 1516 1516
1492 1492 1492 1492 1493 1493 1493 1493 1493 1492 1492 1493 1494 1495 1495 1495 1496 1497 1498 1499 1500 1501 1502 1503 1504 1505 1505 1507 1509 1508 1509 1508 1510 1511 1512 1511 1513 1513 1514 1515 1514 1514 1515
1493 1493 1494 1494 1494 1494 1493 1493 1492 1492 1492 1493 1493 1494 1494 1495 1495 1496 1497 1498 1499 1500 1501 1502 1503 1504 1505 1506 1506 1507 1507 1508 1509 1509 1511 1511 1511 1512 1513 1513 1513 1512 1513
1493 1493 1494 1494 1493 1493 1493 1492 1491 1490 1490 1490 1491 1491 1492 1493 1493 1494 1495 1496 1497 1498 1499 1500 1501 1502 1503 1504 1504 1505 1505 1506 1507 1507 1508 1509 1509 1510 1511 1511 1510 1511 1512
1493 1493 1493 1492 1492 1492 1491 1490 1490 1489 1488 1488 1488 1488 1489 1490 1491 1491 1492 1493 1494 1494 1495 1496 1498 1499 1499 1500 1500 1501 1502 1502 1503 1504 1505 1506 1506 1507 1508 1506 1507 1507 1507
1492 1492 1491 1491 1490 1490 1489 1489 1488 1487 1487 1486 1486 1486 1486 1486 1486 1487 1488 1489 1490 1490 1491 1492 1494 1494 1495 1496 1496 1497 1497 1498 1499 1500 1501 1502 1502 1503 1504 1505 1504 1505 1506
1490 1489 1488 1487 1487 1487 1486 1486 1485 1484 1484 1483 1483 1483 1483 1483 1482 1482 1482 1483 1484 1485 1486 1487 1488 1489 1490 1492 1492 1493 1493 1494 1494 1495 1496 1497 1499 1500 1500 1501 1501 1501 1502
1487 1487 1484 1483 1483 1482 1482 1482 1482 1481 1480 1479 1479 1478 1478 1479 1479 1478 1478 1478 1478 1479 1479 1480 1481 1482 1483 1484 1486 1487 1488 1489 1489 1490 1491 1492 1493 1494 1495 1495 1496 1497 1498
1483 1482 1479 1478 1478 1477 1477 1477 1477 1477 1476 1476 1475 1474 1474 1473 1474 1474 1474 1474 1475 1475 1475 1475 1475 1476 1476 1477 1479 1480 1481 1482 1483 1484 1485 1486 1487 1488 1489 1490 1491 1493 1492
1476 1476 1474 1472 1472 1471 1470 1470 1471 1471 1470 1470 1470 1470 1470 1469 1469 1469 1469 1470 1470 1470 1470 1471 1471 1471 1471 1472 1473 1473 1474 1476 1476 1477 1479 1480 1481 1482 1484 1485 1486 1488 1487
1469 1467 1466 1465 1464 1464 1463 1463 1464 1464 1464 1464 1464 1464 1464 1464 1464 1465 1465 1465 1466 1466 1466 1466 1466 1466 1467 1467 1467 1467 1468 1469 1470 1471 1472 1473 1476 1477 1477 1478 1480 1482 1481
1461 1459 1457 1456 1456 1457 1456 1456 1456 1457 1457 1458 1458 1458 1458 1459 1459 1460 1460 1461 1461 1461 1461 1461 1462 1462 1462 1464 1464 1465 1464 1464 1465 1465 1465 1466 1467 1470 1471 1472 1473 1474 1475
1453 1450 1449 1448 1447 1447 1448 1448 1449 1449 1450 1451 1452 1452 1453 1454 1454 1455 1456 1456 1456 1456 1457 1458 1458 1458 1459 1460 1460 1461 1461 1461 1462 1462 1461 1461 1461 1462 1465 1465 1466 1467 1469